QPF
0.17 0.16 0.16 0.17 0.16 0.16 0.17 0.17 0.21 0.24 0.22 0.18 0.12 0.12 0.14 0.11 0.06 0.08 0.13 0.12 0.06 0.04 0.03 0.03 0.04 0.05 0.06 0.06 0.04 0.03 0.02 0.02 0.03 0.02 0.02 0.02 0.01 0.01 0.00 0.01 0.00 0.00 0.01
0.21 0.22 0.18 0.17 0.16 0.18 0.20 0.20 0.21 0.23 0.21 0.17 0.13 0.12 0.13 0.09 0.07 0.06 0.10 0.15 0.09 0.05 0.03 0.03 0.04 0.05 0.07 0.08 0.07 0.04 0.03 0.03 0.03 0.02 0.02 0.02 0.02 0.01 0.01 0.01 0.01 0.00 0.00
0.13 0.13 0.13 0.15 0.14 0.14 0.13 0.14 0.15 0.15 0.14 0.14 0.13 0.12 0.09 0.08 0.07 0.05 0.05 0.10 0.11 0.08 0.06 0.04 0.03 0.04 0.06 0.07 0.09 0.08 0.05 0.04 0.04 0.03 0.02 0.02 0.02 0.01 0.01 0.01 0.01 0.00 0.00
0.08 0.08 0.07 0.07 0.07 0.09 0.09 0.08 0.08 0.09 0.11 0.11 0.12 0.11 0.10 0.09 0.08 0.08 0.07 0.08 0.10 0.08 0.10 0.07 0.04 0.04 0.04 0.04 0.07 0.09 0.08 0.06 0.04 0.04 0.02 0.02 0.02 0.02 0.01 0.01 0.01 0.01 0.00
0.04 0.05 0.04 0.05 0.04 0.04 0.05 0.05 0.07 0.08 0.09 0.10 0.08 0.10 0.10 0.07 0.06 0.06 0.06 0.06 0.06 0.08 0.08 0.09 0.06 0.04 0.03 0.03 0.04 0.06 0.08 0.08 0.06 0.05 0.04 0.02 0.02 0.02 0.01 0.01 0.01 0.00 0.00
0.03 0.03 0.03 0.03 0.02 0.02 0.03 0.03 0.04 0.05 0.05 0.06 0.05 0.08 0.10 0.06 0.05 0.05 0.03 0.04 0.05 0.05 0.06 0.08 0.10 0.05 0.04 0.03 0.04 0.05 0.07 0.08 0.07 0.06 0.05 0.04 0.02 0.02 0.01 0.01 0.01 0.01 0.01
0.02 0.01 0.01 0.02 0.02 0.02 0.02 0.03 0.03 0.03 0.04 0.05 0.05 0.05 0.06 0.04 0.03 0.03 0.03 0.03 0.04 0.06 0.09 0.13 0.13 0.11 0.06 0.03 0.03 0.04 0.06 0.07 0.08 0.07 0.06 0.06 0.04 0.03 0.02 0.01 0.01 0.01 0.01
0.01 0.01 0.02 0.01 0.02 0.02 0.01 0.02 0.02 0.03 0.03 0.04 0.03 0.03 0.03 0.03 0.04 0.03 0.04 0.04 0.05 0.06 0.09 0.10 0.12 0.14 0.11 0.10 0.05 0.04 0.05 0.07 0.09 0.09 0.10 0.09 0.07 0.05 0.03 0.02 0.01 0.01 0.01
0.01 0.01 0.01 0.01 0.01 0.01 0.01 0.02 0.01 0.02 0.02 0.02 0.02 0.03 0.03 0.03 0.04 0.04 0.04 0.05 0.08 0.08 0.08 0.09 0.10 0.11 0.11 0.14 0.13 0.07 0.04 0.05 0.08 0.10 0.11 0.11 0.08 0.06 0.05 0.03 0.02 0.01 0.01
0.01 0.01 0.01 0.01 0.02 0.01 0.01 0.01 0.01 0.01 0.01 0.01 0.01 0.02 0.02 0.03 0.03 0.03 0.04 0.06 0.09 0.10 0.10 0.09 0.08 0.09 0.12 0.14 0.15 0.12 0.06 0.05 0.07 0.09 0.12 0.11 0.09 0.06 0.05 0.04 0.03 0.02 0.01
0.01 0.00 0.00 0.01 0.02 0.01 0.01 0.01 0.02 0.01 0.01 0.01 0.01 0.01 0.01 0.02 0.03 0.04 0.03 0.05 0.06 0.07 0.08 0.09 0.09 0.09 0.11 0.13 0.16 0.13 0.09 0.08 0.07 0.08 0.10 0.11 0.10 0.07 0.06 0.05 0.06 0.04 0.02
0.01 0.00 0.00 0.01 0.01 0.01 0.01 0.01 0.02 0.01 0.01 0.01 0.01 0.01 0.01 0.01 0.02 0.03 0.03 0.04 0.04 0.05 0.07 0.07 0.07 0.08 0.09 0.11 0.13 0.14 0.13 0.10 0.09 0.08 0.09 0.09 0.08 0.06 0.06 0.06 0.06 0.05 0.03
0.00 0.00 0.00 0.00 0.01 0.01 0.01 0.01 0.01 0.01 0.01 0.02 0.01 0.01 0.01 0.01 0.01 0.01 0.02 0.02 0.03 0.05 0.06 0.06 0.06 0.07 0.07 0.09 0.12 0.15 0.15 0.14 0.12 0.11 0.09 0.08 0.06 0.06 0.05 0.04 0.05 0.06 0.05
0.00 0.00 0.00 0.00 0.00 0.00 0.00 0.01 0.01 0.01 0.01 0.01 0.01 0.01 0.01 0.00 0.01 0.01 0.01 0.02 0.02 0.04 0.05 0.06 0.07 0.09 0.10 0.10 0.13 0.13 0.12 0.12 0.11 0.10 0.10 0.09 0.07 0.06 0.04 0.03 0.03 0.03 0.04
0.00 0.00 0.00 0.00 0.00 0.00 0.01 0.01 0.01 0.01 0.01 0.01 0.01 0.01 0.02 0.01 0.01 0.01 0.01 0.02 0.03 0.04 0.05 0.07 0.09 0.09 0.11 0.12 0.14 0.14 0.15 0.14 0.11 0.09 0.08 0.07 0.07 0.06 0.05 0.03 0.02 0.02 0.02
0.00 0.00 0.00 0.00 0.01 0.01 0.01 0.01 0.01 0.01 0.02 0.01 0.01 0.01 0.02 0.01 0.01 0.01 0.01 0.01 0.02 0.03 0.04 0.06 0.07 0.08 0.08 0.10 0.13 0.15 0.18 0.19 0.17 0.13 0.09 0.07 0.06 0.05 0.04 0.03 0.03 0.02 0.01
0.00 0.00 0.01 0.01 0.01 0.01 0.01 0.01 0.01 0.01 0.01 0.02 0.02 0.02 0.02 0.02 0.02 0.01 0.01 0.01 0.02 0.02 0.03 0.04 0.05 0.06 0.07 0.09 0.12 0.16 0.17 0.18 0.18 0.17 0.14 0.10 0.07 0.05 0.04 0.04 0.04 0.03 0.02
0.00 0.00 0.01 0.01 0.00 0.00 0.01 0.01 0.01 0.01 0.01 0.01 0.01 0.02 0.02 0.02 0.03 0.03 0.02 0.02 0.01 0.02 0.02 0.03 0.04 0.05 0.06 0.08 0.09 0.14 0.18 0.18 0.18 0.18 0.15 0.13 0.11 0.08 0.06 0.05 0.04 0.03 0.02
0.01 0.01 0.01 0.01 0.01 0.01 0.01 0.01 0.01 0.01 0.01 0.01 0.01 0.02 0.02 0.03 0.03 0.04 0.05 0.03 0.03 0.02 0.02 0.02 0.03 0.05 0.06 0.08 0.10 0.11 0.15 0.20 0.20 0.19 0.18 0.15 0.13 0.11 0.09 0.07 0.05 0.04 0.03
0.01 0.01 0.01 0.01 0.01 0.01 0.01 0.01 0.01 0.01 0.01 0.01 0.01 0.02 0.02 0.02 0.03 0.04 0.04 0.05 0.05 0.04 0.04 0.03 0.03 0.04 0.05 0.07 0.10 0.12 0.15 0.18 0.20 0.20 0.19 0.15 0.13 0.12 0.11 0.09 0.06 0.05 0.04
0.00 0.00 0.01 0.01 0.01 0.01 0.00 0.00 0.00 0.00 0.01 0.01 0.01 0.01 0.01 0.01 0.02 0.02 0.02 0.04 0.05 0.06 0.05 0.04 0.04 0.04 0.05 0.06 0.09 0.12 0.16 0.21 0.21 0.21 0.22 0.17 0.13 0.10 0.09 0.09 0.08 0.05 0.04
0.00 0.01 0.01 0.01 0.01 0.00 0.00 0.00 0.00 0.00 0.00 0.00 0.01 0.02 0.01 0.01 0.01 0.00 0.00 0.00 0.01 0.02 0.03 0.04 0.04 0.05 0.06 0.08 0.09 0.13 0.16 0.21 0.27 0.26 0.24 0.24 0.19 0.14 0.09 0.07 0.05 0.05 0.04
0.01 0.01 0.01 0.01 0.01 0.02 0.00 0.00 0.00 0.00 0.00 0.00 0.01 0.02 0.01 0.01 0.02 0.02 0.02 0.01 0.01 0.00 0.00 0.01 0.02 0.04 0.06 0.09 0.11 0.12 0.15 0.18 0.24 0.30 0.33 0.32 0.27 0.22 0.14 0.10 0.08 0.06 0.04
0.01 0.01 0.01 0.01 0.01 0.01 0.00 0.00 0.00 0.00 0.00 0.01 0.01 0.02 0.03 0.03 0.03 0.03 0.04 0.04 0.04 0.03 0.02 0.01 0.01 0.02 0.04 0.07 0.12 0.16 0.18 0.20 0.24 0.30 0.32 0.38 0.34 0.27 0.19 0.13 0.11 0.09 0.06
0.01 0.01 0.01 0.01 0.02 0.02 0.01 0.00 0.00 0.00 0.01 0.01 0.01 0.02 0.03 0.04 0.03 0.01 0.02 0.03 0.03 0.04 0.02 0.01 0.01 0.01 0.01 0.02 0.06 0.13 0.19 0.24 0.23 0.26 0.28 0.30 0.35 0.33 0.25 0.17 0.14 0.13 0.11
0.01 0.01 0.01 0.02 0.02 0.02 0.01 0.00 0.00 0.00 0.01 0.01 0.02 0.03 0.02 0.01 0.01 0.00 0.01 0.03 0.03 0.04 0.05 0.04 0.03 0.02 0.01 0.01 0.02 0.06 0.14 0.23 0.24 0.26 0.25 0.22 0.27 0.31 0.30 0.24 0.16 0.12 0.11
MSLP
1015.27 1015.34 1015.36 1015.38 1015.45 1015.59 1015.80 1016.05 1016.29 1016.48 1016.56 1016.53 1016.38 1016.17 1015.95 1015.79 1015.73 1015.82 1016.06 1016.42 1016.86 1017.32 1017.76 1018.16 1018.48 1018.74 1018.96 1019.16 1019.37 1019.58 1019.83 1020.10 1020.40 1020.72 1021.05 1021.40 1021.76 1022.12 1022.49 1022.83 1023.15 1023.44 1023.70
1015.32 1015.39 1015.42 1015.45 1015.52 1015.64 1015.83 1016.04 1016.25 1016.40 1016.45 1016.40 1016.24 1016.02 1015.79 1015.61 1015.52 1015.56 1015.73 1016.03 1016.41 1016.83 1017.26 1017.66 1018.01 1018.31 1018.56 1018.79 1019.02 1019.24 1019.48 1019.74 1020.03 1020.35 1020.69 1021.06 1021.46 1021.86 1022.26 1022.64 1022.99 1023.31 1023.58
1015.28 1015.37 1015.43 1015.49 1015.58 1015.72 1015.89 1016.09 1016.27 1016.39 1016.41 1016.34 1016.17 1015.93 1015.68 1015.46 1015.31 1015.28 1015.37 1015.57 1015.86 1016.22 1016.60 1016.98 1017.34 1017.66 1017.96 1018.23 1018.48 1018.73 1018.98 1019.24 1019.53 1019.86 1020.22 1020.62 1021.04 1021.48 1021.93 1022.35 1022.74 1023.09 1023.39
1015.14 1015.25 1015.36 1015.46 1015.60 1015.77 1015.96 1016.15 1016.32 1016.41 1016.42 1016.33 1016.15 1015.90 1015.62 1015.36 1015.15 1015.03 1015.02 1015.10 1015.28 1015.53 1015.84 1016.17 1016.51 1016.84 1017.17 1017.47 1017.76 1018.04 1018.32 1018.61 1018.92 1019.26 1019.65 1020.07 1020.53 1021.01 1021.49 1021.96 1022.40 1022.78 1023.13
1014.89 1015.03 1015.18 1015.35 1015.55 1015.76 1015.99 1016.20 1016.36 1016.46 1016.46 1016.36 1016.18 1015.93 1015.63 1015.34 1015.07 1014.87 1014.74 1014.70 1014.74 1014.87 1015.06 1015.31 1015.60 1015.92 1016.25 1016.57 1016.90 1017.22 1017.54 1017.86 1018.21 1018.58 1018.99 1019.45 1019.94 1020.46 1020.98 1021.49 1021.97 1022.41 1022.80
1014.57 1014.73 1014.93 1015.16 1015.42 1015.69 1015.96 1016.19 1016.37 1016.47 1016.48 1016.40 1016.23 1016.00 1015.71 1015.41 1015.10 1014.83 1014.60 1014.43 1014.34 1014.32 1014.38 1014.52 1014.72 1014.99 1015.30 1015.63 1015.98 1016.33 1016.69 1017.06 1017.44 1017.85 1018.30 1018.78 1019.30 1019.85 1020.41 1020.96 1021.49 1021.97 1022.41
1014.24 1014.42 1014.65 1014.93 1015.24 1015.56 1015.86 1016.12 1016.32 1016.44 1016.47 1016.42 1016.29 1016.09 1015.84 1015.55 1015.24 1014.93 1014.62 1014.35 1014.13 1013.96 1013.88 1013.89 1013.99 1014.17 1014.43 1014.74 1015.09 1015.46 1015.85 1016.26 1016.68 1017.12 1017.60 1018.11 1018.65 1019.22 1019.81 1020.38 1020.94 1021.46 1021.94
1013.99 1014.15 1014.40 1014.70 1015.04 1015.39 1015.71 1015.99 1016.21 1016.34 1016.40 1016.39 1016.31 1016.18 1015.99 1015.75 1015.47 1015.15 1014.81 1014.46 1014.13 1013.84 1013.62 1013.49 1013.47 1013.55 1013.73 1013.99 1014.32 1014.69 1015.09 1015.51 1015.96 1016.42 1016.91 1017.44 1017.99 1018.57 1019.16 1019.75 1020.33 1020.88 1021.40
1013.86 1013.99 1014.22 1014.52 1014.86 1015.21 1015.54 1015.81 1016.03 1016.18 1016.26 1016.29 1016.28 1016.21 1016.11 1015.95 1015.73 1015.44 1015.10 1014.72 1014.33 1013.94 1013.61 1013.35 1013.20 1013.18 1013.26 1013.45 1013.72 1014.06 1014.45 1014.86 1015.30 1015.77 1016.25 1016.77 1017.31 1017.88 1018.47 1019.06 1019.65 1020.22 1020.77
1013.87 1013.96 1014.15 1014.41 1014.73 1015.05 1015.35 1015.60 1015.80 1015.95 1016.05 1016.11 1016.16 1016.17 1016.15 1016.08 1015.95 1015.73 1015.43 1015.06 1014.63 1014.19 1013.78 1013.43 1013.17 1013.03 1013.02 1013.11 1013.31 1013.59 1013.92 1014.30 1014.71 1015.14 1015.60 1016.09 1016.60 1017.15 1017.72 1018.30 1018.89 1019.48 1020.05
1013.99 1014.03 1014.17 1014.39 1014.65 1014.93 1015.18 1015.39 1015.55 1015.68 1015.77 1015.86 1015.95 1016.03 1016.09 1016.11 1016.07 1015.93 1015.69 1015.36 1014.95 1014.50 1014.04 1013.62 1013.29 1013.06 1012.94 1012.94 1013.05 1013.24 1013.50 1013.80 1014.15 1014.52 1014.93 1015.37 1015.84 1016.35 1016.90 1017.47 1018.06 1018.66 1019.26
1014.17 1014.17 1014.26 1014.42 1014.63 1014.83 1015.02 1015.17 1015.29 1015.38 1015.46 1015.55 1015.66 1015.78 1015.90 1015.99 1016.03 1015.97 1015.81 1015.54 1015.17 1014.74 1014.28 1013.84 1013.46 1013.16 1012.96 1012.87 1012.88 1012.97 1013.12 1013.34 1013.59 1013.88 1014.22 1014.59 1015.01 1015.49 1016.01 1016.57 1017.17 1017.79 1018.41
1014.35 1014.32 1014.37 1014.48 1014.62 1014.76 1014.88 1014.97 1015.03 1015.07 1015.13 1015.20 1015.30 1015.44 1015.59 1015.73 1015.82 1015.82 1015.73 1015.53 1015.22 1014.84 1014.41 1013.98 1013.58 1013.25 1012.99 1012.82 1012.73 1012.71 1012.76 1012.86 1013.01 1013.21 1013.45 1013.76 1014.13 1014.56 1015.07 1015.63 1016.24 1016.88 1017.54
1014.48 1014.43 1014.45 1014.51 1014.60 1014.68 1014.75 1014.78 1014.79 1014.78 1014.79 1014.83 1014.92 1015.04 1015.18 1015.33 1015.44 1015.49 1015.44 1015.30 1015.06 1014.74 1014.37 1013.98 1013.60 1013.25 1012.96 1012.73 1012.56 1012.45 1012.38 1012.37 1012.41 1012.50 1012.66 1012.89 1013.20 1013.61 1014.09 1014.66 1015.29 1015.97 1016.68
1014.51 1014.46 1014.46 1014.50 1014.54 1014.59 1014.60 1014.59 1014.55 1014.51 1014.48 1014.48 1014.52 1014.60 1014.72 1014.84 1014.94 1015.00 1014.98 1014.88 1014.70 1014.45 1014.14 1013.81 1013.47 1013.14 1012.84 1012.57 1012.34 1012.14 1011.98 1011.86 1011.79 1011.78 1011.85 1012.01 1012.27 1012.64 1013.12 1013.70 1014.36 1015.08 1015.82
1014.45 1014.41 1014.40 1014.42 1014.44 1014.45 1014.44 1014.40 1014.33 1014.26 1014.19 1014.15 1014.14 1014.17 1014.23 1014.30 1014.37 1014.40 1014.39 1014.31 1014.18 1013.98 1013.75 1013.48 1013.19 1012.90 1012.61 1012.33 1012.06 1011.80 1011.55 1011.34 1011.18 1011.07 1011.06 1011.15 1011.36 1011.70 1012.17 1012.76 1013.44 1014.19 1014.98
1014.30 1014.27 1014.26 1014.27 1014.27 1014.27 1014.23 1014.18 1014.10 1014.00 1013.91 1013.83 1013.78 1013.75 1013.75 1013.76 1013.77 1013.77 1013.73 1013.66 1013.55 1013.40 1013.22 1013.02 1012.79 1012.55 1012.29 1012.02 1011.73 1011.43 1011.13 1010.85 1010.60 1010.41 1010.32 1010.35 1010.51 1010.81 1011.26 1011.84 1012.54 1013.32 1014.14
1014.11 1014.07 1014.06 1014.06 1014.05 1014.02 1013.98 1013.92 1013.83 1013.72 1013.62 1013.51 1013.42 1013.35 1013.29 1013.24 1013.19 1013.13 1013.06 1012.98 1012.88 1012.76 1012.63 1012.48 1012.32 1012.13 1011.91 1011.66 1011.37 1011.06 1010.72 1010.39 1010.07 1009.82 1009.66 1009.62 1009.72 1009.97 1010.39 1010.95 1011.64 1012.42 1013.26
1013.87 1013.84 1013.81 1013.79 1013.76 1013.72 1013.66 1013.59 1013.50 1013.39 1013.28 1013.16 1013.04 1012.93 1012.83 1012.72 1012.62 1012.52 1012.42 1012.32 1012.22 1012.12 1012.02 1011.92 1011.80 1011.66 1011.49 1011.27 1011.00 1010.69 1010.33 1009.97 1009.61 1009.30 1009.07 1008.96 1008.99 1009.19 1009.55 1010.07 1010.73 1011.50 1012.35
1013.62 1013.57 1013.52 1013.47 1013.41 1013.34 1013.27 1013.18 1013.08 1012.97 1012.86 1012.74 1012.61 1012.48 1012.35 1012.21 1012.08 1011.94 1011.81 1011.69 1011.59 1011.50 1011.42 1011.35 1011.27 1011.17 1011.04 1010.85 1010.61 1010.31 1009.96 1009.58 1009.19 1008.84 1008.55 1008.37 1008.33 1008.45 1008.75 1009.21 1009.83 1010.57 1011.41
1013.35 1013.27 1013.18 1013.09 1012.99 1012.89 1012.79 1012.68 1012.57 1012.46 1012.34 1012.22 1012.10 1011.97 1011.83 1011.69 1011.53 1011.38 1011.24 1011.11 1011.00 1010.91 1010.84 1010.78 1010.73 1010.66 1010.56 1010.42 1010.21 1009.93 1009.60 1009.22 1008.82 1008.43 1008.10 1007.86 1007.75 1007.79 1008.01 1008.40 1008.96 1009.67 1010.49
1013.04 1012.93 1012.80 1012.66 1012.52 1012.37 1012.23 1012.10 1011.97 1011.85 1011.74 1011.63 1011.52 1011.40 1011.27 1011.13 1010.98 1010.83 1010.68 1010.55 1010.43 1010.34 1010.27 1010.22 1010.18 1010.13 1010.06 1009.94 1009.77 1009.52 1009.22 1008.86 1008.46 1008.06 1007.70 1007.42 1007.24 1007.22 1007.35 1007.68 1008.18 1008.84 1009.64
1012.69 1012.54 1012.36 1012.18 1011.99 1011.81 1011.63 1011.47 1011.32 1011.19 1011.08 1010.98 1010.88 1010.78 1010.67 1010.55 1010.42 1010.28 1010.14 1010.01 1009.89 1009.79 1009.71 1009.66 1009.62 1009.57 1009.52 1009.42 1009.28 1009.08 1008.81 1008.48 1008.11 1007.73 1007.36 1007.05 1006.84 1006.75 1006.83 1007.09 1007.54 1008.16 1008.93
1012.27 1012.09 1011.88 1011.66 1011.44 1011.22 1011.02 1010.83 1010.66 1010.52 1010.41 1010.31 1010.23 1010.15 1010.06 1009.96 1009.86 1009.73 1009.60 1009.47 1009.34 1009.23 1009.14 1009.07 1009.02 1008.98 1008.93 1008.86 1008.75 1008.59 1008.37 1008.09 1007.77 1007.42 1007.07 1006.77 1006.54 1006.43 1006.47 1006.69 1007.09 1007.68 1008.44
1011.80 1011.59 1011.36 1011.13 1010.89 1010.65 1010.43 1010.23 1010.06 1009.91 1009.79 1009.70 1009.62 1009.55 1009.48 1009.40 1009.31 1009.19 1009.07 1008.93 1008.79 1008.66 1008.55 1008.46 1008.39 1008.33 1008.29 1008.23 1008.16 1008.04 1007.88 1007.67 1007.41 1007.13 1006.83 1006.56 1006.35 1006.25 1006.28 1006.48 1006.86 1007.43 1008.16
1011.26 1011.05 1010.82 1010.59 1010.36 1010.13 1009.91 1009.72 1009.54 1009.39 1009.27 1009.18 1009.10 1009.02 1008.95 1008.87 1008.78 1008.67 1008.53 1008.38 1008.23 1008.07 1007.93 1007.81 1007.72 1007.65 1007.60 1007.56 1007.52 1007.45 1007.36 1007.22 1007.05 1006.84 1006.62 1006.42 1006.26 1006.19 1006.24 1006.45 1006.82 1007.38 1008.10
Thickness
5739 5739 5737 5736 5735 5735 5735 5733 5733 5732 5732 5732 5733 5734 5734 5734 5735 5737 5736 5734 5734 5734 5733 5733 5731 5730 5729 5728 5728 5727 5726 5726 5725 5723 5722 5721 5720 5719 5718 5717 5717 5716 5716
5734 5733 5733 5733 5732 5731 5731 5730 5730 5729 5729 5730 5731 5733 5733 5734 5734 5735 5734 5732 5731 5732 5731 5731 5730 5729 5729 5728 5727 5727 5726 5725 5725 5724 5723 5722 5720 5719 5718 5717 5717 5716 5715
5730 5729 5730 5729 5728 5728 5728 5727 5727 5727 5727 5728 5728 5731 5732 5733 5733 5733 5732 5731 5731 5730 5729 5729 5729 5728 5728 5728 5727 5727 5726 5726 5725 5724 5723 5722 5721 5720 5719 5718 5717 5716 5715
5726 5726 5726 5725 5725 5725 5725 5724 5723 5722 5721 5722 5723 5726 5728 5730 5731 5731 5731 5730 5730 5729 5728 5727 5727 5727 5727 5727 5726 5726 5726 5725 5725 5724 5723 5722 5721 5720 5719 5718 5717 5716 5715
5723 5722 5722 5721 5721 5721 5720 5719 5717 5716 5715 5715 5717 5721 5724 5726 5728 5729 5729 5729 5728 5728 5728 5727 5726 5726 5726 5726 5726 5726 5726 5725 5725 5724 5723 5722 5722 5721 5720 5719 5717 5716 5715
5719 5718 5718 5717 5716 5715 5713 5712 5711 5710 5710 5711 5714 5717 5719 5722 5725 5726 5726 5727 5727 5727 5727 5727 5726 5725 5725 5725 5725 5725 5725 5725 5725 5724 5723 5722 5722 5721 5720 5719 5718 5717 5716
5716 5714 5712 5711 5710 5709 5707 5706 5704 5703 5704 5707 5706 5707 5713 5719 5721 5723 5724 5725 5725 5726 5726 5726 5726 5724 5724 5723 5724 5724 5725 5725 5725 5724 5723 5723 5722 5722 5721 5720 5719 5717 5716
5712 5711 5707 5705 5704 5702 5701 5700 5698 5696 5696 5699 5697 5695 5697 5704 5712 5720 5721 5721 5722 5723 5723 5724 5724 5723 5723 5723 5723 5723 5723 5724 5725 5724 5724 5723 5722 5722 5721 5721 5720 5718 5717
5708 5705 5703 5701 5698 5696 5695 5694 5693 5691 5688 5690 5692 5689 5685 5687 5694 5706 5711 5715 5716 5716 5718 5719 5721 5721 5721 5721 5722 5722 5722 5723 5724 5724 5723 5723 5722 5722 5721 5721 5720 5719 5718
5705 5702 5700 5697 5693 5691 5689 5688 5689 5685 5683 5681 5684 5687 5686 5686 5681 5685 5695 5702 5706 5708 5711 5715 5717 5718 5718 5719 5720 5721 5721 5722 5722 5723 5723 5722 5722 5721 5721 5721 5720 5719 5718
5702 5700 5697 5693 5689 5685 5683 5682 5680 5679 5677 5675 5675 5676 5678 5679 5680 5675 5677 5686 5694 5700 5704 5707 5711 5713 5715 5716 5717 5718 5719 5720 5721 5721 5721 5721 5721 5721 5721 5721 5721 5720 5719
5698 5697 5694 5689 5684 5681 5678 5676 5674 5672 5671 5670 5669 5668 5668 5668 5669 5671 5671 5675 5680 5688 5696 5700 5703 5707 5710 5711 5713 5715 5716 5718 5718 5719 5720 5720 5720 5720 5721 5721 5721 5720 5719
5691 5689 5686 5682 5678 5675 5672 5670 5668 5666 5665 5663 5662 5662 5663 5663 5665 5666 5666 5667 5671 5678 5685 5691 5697 5701 5703 5705 5708 5710 5712 5715 5716 5717 5718 5719 5719 5720 5720 5721 5721 5720 5720
5686 5683 5680 5676 5673 5669 5667 5664 5662 5660 5660 5658 5657 5656 5655 5656 5658 5659 5659 5659 5659 5665 5672 5679 5688 5693 5695 5698 5700 5703 5706 5709 5712 5714 5715 5716 5717 5718 5719 5719 5720 5720 5720
5681 5678 5673 5670 5667 5664 5661 5658 5655 5653 5652 5651 5650 5650 5650 5650 5652 5653 5654 5654 5651 5651 5658 5667 5674 5683 5687 5689 5693 5696 5700 5703 5707 5710 5712 5714 5715 5716 5717 5718 5719 5719 5719
5676 5672 5668 5664 5661 5658 5655 5652 5649 5647 5645 5643 5642 5642 5641 5642 5643 5645 5646 5647 5648 5647 5650 5659 5664 5672 5677 5682 5685 5689 5693 5697 5701 5705 5708 5710 5712 5713 5714 5715 5717 5718 5718
5672 5667 5663 5659 5655 5652 5648 5645 5642 5639 5637 5636 5635 5634 5634 5634 5633 5635 5637 5638 5640 5641 5642 5650 5656 5662 5667 5671 5676 5681 5686 5690 5695 5699 5703 5706 5708 5711 5712 5713 5714 5716 5717
5667 5663 5658 5653 5649 5646 5642 5638 5634 5632 5629 5627 5626 5625 5625 5625 5625 5625 5626 5627 5630 5633 5634 5637 5644 5651 5657 5663 5668 5672 5678 5684 5689 5693 5697 5700 5704 5706 5708 5710 5712 5713 5715
5663 5658 5653 5648 5643 5639 5635 5631 5627 5624 5621 5619 5618 5616 5616 5615 5615 5615 5616 5617 5620 5624 5627 5629 5634 5641 5647 5653 5658 5663 5670 5676 5682 5686 5690 5694 5698 5701 5703 5706 5708 5711 5712
5658 5653 5648 5642 5637 5632 5628 5624 5621 5617 5614 5611 5609 5608 5607 5607 5607 5607 5607 5608 5610 5612 5615 5619 5624 5630 5636 5643 5648 5652 5657 5665 5672 5678 5683 5688 5691 5694 5697 5701 5704 5707 5709
5654 5648 5642 5637 5631 5627 5623 5617 5612 5609 5605 5602 5601 5600 5600 5600 5600 5599 5600 5600 5600 5601 5604 5608 5613 5618 5625 5630 5636 5643 5647 5654 5662 5669 5674 5680 5683 5687 5690 5694 5697 5701 5704
5649 5643 5637 5631 5625 5621 5615 5609 5603 5600 5597 5594 5593 5592 5592 5593 5594 5594 5593 5593 5593 5593 5594 5597 5602 5606 5613 5619 5626 5632 5637 5642 5649 5659 5664 5669 5676 5680 5685 5688 5693 5696 5699
5644 5637 5631 5625 5620 5614 5608 5602 5597 5592 5589 5587 5586 5585 5585 5587 5587 5586 5586 5586 5586 5586 5587 5588 5592 5597 5602 5609 5614 5620 5626 5632 5639 5648 5653 5659 5666 5672 5678 5683 5686 5690 5693
5638 5631 5625 5619 5614 5609 5603 5597 5591 5586 5584 5582 5581 5579 5579 5578 5578 5577 5577 5577 5578 5580 5581 5582 5586 5590 5595 5600 5605 5610 5616 5624 5632 5639 5644 5648 5655 5661 5668 5673 5678 5682 5685
5632 5625 5620 5614 5609 5604 5598 5592 5585 5582 5579 5578 5577 5576 5574 5573 5571 5569 5567 5567 5569 5571 5574 5578 5581 5585 5588 5592 5596 5600 5606 5611 5620 5629 5636 5641 5645 5650 5655 5661 5666 5671 5675
5627 5620 5615 5610 5605 5600 5595 5588 5580 5577 5574 5573 5572 5571 5569 5567 5564 5561 5558 5558 5559 5561 5563 5568 5571 5575 5580 5584 5588 5593 5598 5603 5611 5619 5628 5632 5637 5640 5643 5648 5655 5660 5664